Theta_e
291 290 289 289 289 289 289 289 289 289 288 288 290 291 291 291 291 291 291 291 291 292 292 292 293 294 294
289 289 289 289 289 289 290 290 289 289 288 290 290 290 290 290 290 290 290 290 290 290 291 291 292 292 291
289 289 289 289 289 289 289 288 288 288 288 288 288 289 289 289 289 289 289 289 289 289 290 290 290 290 291
289 289 289 288 288 288 287 287 287 287 287 286 287 287 287 287 287 287 287 288 289 289 289 289 289 290 290
289 289 289 288 287 287 287 286 286 286 285 285 285 286 285 285 285 286 288 288 288 289 289 289 289 289 289
289 289 288 288 287 286 287 286 285 285 284 285 285 284 284 285 285 286 287 288 288 289 288 288 288 289 289
288 288 288 287 286 287 286 285 284 284 284 284 284 284 284 284 285 285 287 288 288 288 288 288 288 289 289
287 287 286 286 287 286 285 285 284 284 283 283 283 284 284 284 284 285 287 286 287 287 288 288 288 288 288
286 286 285 285 284 284 285 284 283 283 284 283 283 283 283 284 285 285 285 285 285 287 286 287 287 288 288
287 286 284 284 283 283 283 283 283 283 283 283 283 283 284 284 284 284 284 284 285 285 286 286 287 288 288
284 284 283 283 282 282 282 282 282 283 283 283 283 283 284 283 283 284 284 285 285 286 286 286 286 286 286
283 283 282 282 283 283 282 282 282 282 282 282 282 283 283 283 283 283 284 285 285 285 285 285 285 286 286
282 282 283 283 283 283 283 282 283 282 282 282 282 282 283 283 283 283 284 284 285 285 285 285 285 285 285
282 283 283 283 283 282 281 281 282 283 283 282 282 282 282 283 283 283 284 284 284 284 284 284 284 285 284
283 282 282 282 281 281 281 280 280 281 281 281 281 281 282 282 282 283 284 283 283 283 284 284 284 284 285
282 281 281 280 280 281 280 279 280 280 280 280 280 280 281 281 282 282 282 282 283 283 283 283 284 284 284
281 281 279 279 280 280 280 279 279 280 280 280 279 280 279 279 280 281 281 281 282 282 282 282 283 283 283
Wind_Speed
23 25 26 27 23 23 25 27 28 29 31 33 28 28 28 26 27 27 26 26 27 27 27 28 26 26 28
24 25 24 25 27 25 25 23 27 31 32 26 26 28 27 28 28 28 26 26 26 26 24 26 24 24 28
24 24 25 26 26 25 26 29 31 35 31 31 30 28 27 26 28 26 25 23 22 22 25 24 26 26 26
21 24 26 28 27 32 33 34 38 38 32 30 27 28 29 26 26 26 24 21 24 24 24 24 25 26 25
24 27 30 32 34 33 35 38 41 33 31 29 27 27 29 28 27 23 23 24 23 24 23 23 23 24 24
24 28 31 34 34 33 35 37 39 32 32 32 27 30 26 26 24 24 21 19 20 21 24 25 24 24 24
22 27 32 32 32 34 34 34 33 35 32 34 32 31 28 29 24 19 15 19 23 23 22 24 24 24 24
23 28 28 28 27 28 30 30 32 35 32 35 29 32 34 30 23 14 13 26 20 21 23 25 26 25 24
25 27 23 21 23 21 27 31 36 34 28 27 31 35 36 32 10 11 26 27 22 20 24 23 24 21 22
23 20 23 20 19 20 23 26 30 33 28 34 33 32 36 11 28 29 28 25 23 24 22 19 17 20 24
23 24 23 21 22 21 22 22 24 28 29 26 31 29 27 37 36 32 29 29 26 24 18 18 24 21 22
24 24 23 25 24 25 22 20 20 24 25 21 25 26 30 32 35 36 33 29 25 16 21 23 25 24 21
24 26 25 25 24 23 22 22 20 19 20 19 20 21 21 26 33 35 35 31 14 26 25 25 29 28 27
26 25 26 24 23 23 25 26 26 26 22 20 17 18 23 25 27 31 27 28 28 29 29 30 28 27 23
26 26 25 24 23 24 25 24 25 28 30 26 23 22 22 22 27 26 25 28 31 30 26 26 26 24 22
27 25 24 23 25 25 23 22 25 28 29 30 32 30 28 25 19 24 28 31 28 25 27 28 31 28 26
29 26 25 24 24 23 24 25 27 26 28 31 29 26 29 32 31 21 29 28 28 30 29 28 32 32 28
Wind_Direction
318 322 326 326 327 330 338 338 337 329 325 321 321 320 319 317 317 314 310 307 304 303 301 298 295 293 288
321 324 324 331 337 337 338 328 317 319 321 320 314 313 317 311 315 316 314 308 303 301 305 300 296 298 295
317 323 329 335 333 332 325 323 318 322 322 317 317 317 310 311 315 314 311 310 311 305 302 303 300 300 297
322 326 329 333 332 328 326 320 321 321 321 321 319 316 316 316 313 314 315 309 307 306 305 301 299 301 299
328 327 328 330 330 327 320 321 321 327 329 325 324 324 324 322 320 322 315 305 306 309 312 309 302 303 304
320 320 319 321 323 322 320 320 323 331 330 324 327 325 331 334 330 318 319 317 314 313 313 311 306 303 301
312 312 313 319 321 318 317 318 317 321 323 317 322 323 327 326 328 325 323 323 316 312 312 312 310 308 305
303 305 308 313 307 308 307 308 308 315 322 316 329 322 323 322 326 322 308 323 321 317 317 316 310 306 305
309 308 308 309 312 312 312 315 316 323 337 333 331 328 329 331 335 319 311 326 324 321 316 315 312 315 311
318 318 318 320 322 312 312 312 315 319 325 326 325 329 328 339 317 325 327 329 326 323 319 316 321 316 311
319 318 323 322 321 320 317 309 309 304 310 316 314 320 313 311 317 326 329 327 327 326 326 327 322 317 311
316 323 325 327 327 327 323 315 302 299 313 310 309 308 305 308 311 320 325 328 329 335 331 324 323 323 320
316 322 325 323 326 328 329 329 325 322 322 325 320 315 308 307 310 316 321 327 333 332 327 321 323 319 323
318 322 324 326 328 331 329 329 328 332 336 340 333 321 317 315 314 313 322 318 321 322 320 314 313 315 315
322 320 323 324 324 327 324 325 327 331 335 338 333 326 321 319 315 318 321 316 317 317 317 317 316 319 317
322 318 320 322 319 320 322 324 324 328 332 336 335 330 327 322 321 314 314 316 323 322 319 317 313 316 314
321 320 320 312 316 318 320 321 321 328 331 330 332 329 325 320 323 319 315 322 320 317 316 315 312 314 315